Flag for India Weather past 2 weeks in Dharamshala, Himachal Pradesh, India

Now
90 °F

Broken clouds.


Feels Like: 100 °F
Forecast: 62 / 81 °F
Wind: No wind

Location: Amritsar Airport

Current Time: Aug 27, 2014 at 7:29:58 PM

Latest Report: Aug 27, 2014 at 6:30 PM


Visibility: 3 mi

Pressure: 29.56 "Hg

Humidity: 63%

Dew point: 75 °F

Location of DharamshalaLocation

Historic Weather in Dharamshala — Graph

°F

Dharamshala temperature yesterday

Maximum temperature yesterday: 99 °F (at 4:00 PM)
Minimum temperature yesterday: 79 °F (at 4:00 AM)
Average temperature yesterday: 87 °F

Past Weeks' High & Low Weather Summary

 TemperatureHumidityPressure
High99 °F (Aug 25, 2:00 PM)100% (Aug 15, 3:00 AM)29.80 "Hg (Aug 15, 3:00 AM)
Low73 °F (Aug 16, 9:30 AM)34% (Aug 26, 2:30 PM)29.39 "Hg (Aug 14, 6:00 PM)
Average86 °F76%29.61 "Hg
* Reported Aug 12 5:30 PM — Aug 27 6:00 PM, Dharamshala, Weather by CustomWeather, © 2014

Note: Actual official high and low records may vary slightly from our data, if they occured in-between our weather recording intervals... More about our weather records

Advertising

Dharamshala weather history for previous 24 hours

 ConditionsComfort  
Time TempWeatherWind HumidityBarometerVisibility
6:00 PM
Aug 27
91 °FBroken clouds.No wind59%29.53 "Hg3 mi
5:00 PM90 °FScattered clouds.7 mph55%29.56 "Hg4 mi
4:30 PM91 °FScattered clouds.7 mph56%29.56 "Hg4 mi
4:00 PM91 °FScattered clouds.7 mph56%29.56 "Hg4 mi
3:30 PM93 °FScattered clouds.8 mph53%29.59 "Hg4 mi
3:00 PM93 °FPassing clouds.8 mph53%29.62 "Hg4 mi
2:30 PM91 °FPassing clouds.7 mph56%29.62 "Hg4 mi
2:00 PM93 °FPassing clouds.7 mph49%29.62 "Hg4 mi
1:30 PM91 °FPassing clouds.7 mph49%29.65 "Hg4 mi
12:30 PM90 °FScattered clouds.6 mph59%29.65 "Hg4 mi
12:00 PM88 °FScattered clouds.3 mph66%29.65 "Hg4 mi
11:30 AM88 °FScattered clouds.3 mph66%29.65 "Hg4 mi
11:00 AM88 °FScattered clouds.1 mph62%29.68 "Hg4 mi
10:30 AM86 °FScattered clouds.2 mph66%29.68 "Hg4 mi
10:00 AM84 °FScattered clouds.3 mph70%29.68 "Hg4 mi
9:30 AM84 °FScattered clouds.2 mph66%29.68 "Hg4 mi
9:00 AM81 °FPassing clouds.5 mph74%29.65 "Hg4 mi
8:30 AM79 °FFog.3 mph79%29.65 "Hg3 mi
8:00 AM77 °FFog.7 mph83%29.65 "Hg3 mi
7:30 AM77 °FFog.No wind83%29.65 "Hg3 mi
7:00 AM75 °FFog.2 mph89%29.65 "Hg3 mi
6:30 AM73 °FFog.1 mph94%29.62 "Hg3 mi
6:00 AM73 °FFog.1 mph89%29.62 "Hg2 mi
5:30 AM73 °FFog.3 mph89%29.62 "Hg2 mi
5:00 AM75 °FFog.No wind83%29.62 "Hg2 mi
4:30 AM75 °FFog.5 mph78%29.62 "Hg2 mi
4:00 AM75 °FFog.7 mph83%29.59 "Hg2 mi
3:30 AM75 °FFog.N/A83%29.59 "Hg2 mi
3:00 AM75 °FFog.6 mph83%29.62 "Hg2 mi
2:30 AM75 °FFog.7 mph83%29.62 "Hg2 mi
2:00 AM75 °FFog.7 mph83%29.62 "Hg2 mi
1:00 AM79 °FThundershowers. Passing clouds.6 mph70%29.65 "Hg2 mi
12:30 AM77 °FThunderstorms. Partly cloudy.10 mph74%29.65 "Hg2 mi
11:00 PM
Aug 26
84 °FFog.No wind79%29.65 "Hg2 mi
10:30 PM84 °FFog.No wind79%29.62 "Hg2 mi
10:00 PM84 °FFog.No wind79%29.62 "Hg2 mi
9:30 PM84 °FFog.No wind79%29.62 "Hg2 mi
9:00 PM84 °FPassing clouds.No wind74%29.59 "Hg2 mi
8:30 PM84 °FPassing clouds.No wind74%29.59 "Hg2 mi
8:00 PM86 °FPassing clouds.No wind70%29.56 "Hg3 mi
7:30 PM86 °FScattered clouds.No wind75%29.56 "Hg3 mi
7:00 PM90 °FClear.7 mph63%29.59 "Hg4 mi
Weather by CustomWeather, © 2014

See weather overviewHow to use our weather pages